DW9161 Weather Reports


Display with metric or nautical units.
time (UTC)temp
F
wind
direction
speed
MPH
gust
MPH
rain 1hr
in
rain 24hr
in
rain mn
in
humidity
%
barometer
mb
20260502194608 65 305 5.0 10.0 0.00 0.00 0.00 33 1019.1
20260502194045 65 338 5.0 10.0 0.00 0.00 0.00 34 1019.3
20260502193540 65 232 3.0 7.0 0.00 0.00 0.00 34 1019.3
20260502193035 64 21 3.0 7.0 0.00 0.00 0.00 33 1019.4
20260502192530 64 182 4.0 7.0 0.00 0.00 0.00 34 1019.5
20260502192047 64 269 3.0 8.0 0.00 0.00 0.00 35 1019.6
20260502191602 63 252 2.0 6.0 0.00 0.00 0.00 37 1019.6
20260502191036 63 255 3.0 9.0 0.00 0.00 0.00 33 1019.7
20260502190625 63 307 5.0 9.0 0.00 0.00 0.00 35 1019.7
20260502190041 63 253 2.0 9.0 0.00 0.00 0.00 36 1019.9
20260502185535 63 337 4.0 14.0 0.00 0.00 0.00 37 1020.0
20260502185031 63 341 6.0 14.0 0.00 0.00 0.00 35 1020.2
20260502184547 63 224 3.0 9.0 0.00 0.00 0.00 35 1020.2
20260502184042 62 270 4.0 6.0 0.00 0.00 0.00 38 1020.3
20260502183539 62 307 3.0 13.0 0.00 0.00 0.00 35 1020.3
20260502183118 62 264 5.0 13.0 0.00 0.00 0.00 35 1020.4
20260502182550 62 335 2.0 6.0 0.00 0.00 0.00 37 1020.3
20260502182107 61 267 2.0 10.0 0.00 0.00 0.00 40 1020.4
20260502181543 61 341 2.0 7.0 0.00 0.00 0.00 36 1020.5
20260502181038 61 265 2.0 8.0 0.00 0.00 0.00 39 1020.6
20260502180628 60 257 4.0 8.0 0.00 0.00 0.00 38 1020.7
20260502164043 57 359 1.0 5.0 0.00 0.00 0.00 41 1021.4
20260502163541 57 327 2.0 9.0 0.00 0.00 0.00 41 1021.6
20260502163038 57 233 3.0 7.0 0.00 0.00 0.00 40 1021.6
20260502162539 57 345 3.0 6.0 0.00 0.00 0.00 40 1021.6
20260502162037 57 234 4.0 6.0 0.00 0.00 0.00 39 1021.7
20260502161535 56 353 3.0 6.0 0.00 0.00 0.00 41 1021.7
20260502161033 56 328 4.0 7.0 0.00 0.00 0.00 40 1021.8
20260502160622 56 252 2.0 7.0 0.00 0.00 0.00 40 1021.8
20260502152040 53 290 2.0 4.0 0.00 0.00 0.00 50 1021.9
20260502151538 52 290 2.0 4.0 0.00 0.00 0.00 48 1021.9
20260502151034 52 291 2.0 5.0 0.00 0.00 0.00 48 1021.9
20260502150603 52 289 3.0 5.0 0.00 0.00 0.00 51 1021.9
20260502130624 40 322 1.0 2.0 0.00 0.00 0.00 75 1022.1
20260502123532 37 322 0.0 0.0 0.00 0.00 0.00 78 1022.0
20260502123131 37 322 0.0 0.0 0.00 0.00 0.00 79 1022.0
20260502122544 36 322 0.0 0.0 0.00 0.00 0.00 79 1022.0
20260502122040 36 322 0.0 0.0 0.00 0.00 0.00 81 1022.0
20260502121538 36 322 0.0 0.0 0.00 0.00 0.00 81 1021.9
20260502121035 35 322 0.0 0.0 0.00 0.00 0.00 81 1021.9
20260502120604 35 322 0.0 0.0 0.00 0.00 0.00 81 1021.9
20260502115540 35 322 0.0 0.0 0.00 0.00 0.00 82 1021.8
20260502115039 35 322 0.0 2.0 0.00 0.00 0.00 81 1021.9
20260502114537 35 322 1.0 2.0 0.00 0.00 0.00 82 1021.8
20260502114035 35 322 0.0 0.0 0.00 0.00 0.00 82 1021.7
20260502113534 35 322 0.0 0.0 0.00 0.00 0.00 82 1021.7
20260502113048 35 322 0.0 0.0 0.00 0.00 0.00 81 1021.7
20260502112531 35 322 0.0 0.0 0.00 0.00 0.00 81 1021.7
20260502112105 35 322 0.0 1.0 0.00 0.00 0.00 81 1021.6
20260502111546 35 322 0.0 1.0 0.00 0.00 0.00 81 1021.6
20260502111043 35 322 0.0 0.0 0.00 0.00 0.00 81 1021.5
20260502110551 35 322 0.0 0.0 0.00 0.00 0.00 80 1021.5
20260502110050 35 322 0.0 0.0 0.00 0.00 0.00 81 1021.5
20260502105548 35 322 0.0 0.0 0.00 0.00 0.00 81 1021.5
20260502105046 35 322 0.0 0.0 0.00 0.00 0.00 81 1021.4
20260502104543 35 322 0.0 0.0 0.00 0.00 0.00 81 1021.4
20260502104041 35 322 0.0 0.0 0.00 0.00 0.00 80 1021.4
20260502103536 35 322 0.0 0.0 0.00 0.00 0.00 80 1021.5
20260502103033 35 322 0.0 0.0 0.00 0.00 0.00 81 1021.4
20260502102531 35 322 0.0 0.0 0.00 0.00 0.00 81 1021.4
20260502102110 36 322 0.0 0.0 0.00 0.00 0.00 81 1021.3
20260502101546 36 322 0.0 0.0 0.00 0.00 0.00 80 1021.3
20260502101042 36 322 0.0 0.0 0.00 0.00 0.00 78 1021.3
20260502091039 39 322 0.0 0.0 0.00 0.00 0.00 72 1021.0
20260502090608 39 322 0.0 0.0 0.00 0.00 0.00 70 1021.0
20260502071534 40 322 0.0 0.0 0.00 0.00 0.00 66 1021.1
20260502071033 40 322 0.0 0.0 0.00 0.00 0.00 67 1021.2
20260502070600 41 322 0.0 0.0 0.00 0.00 0.00 65 1021.1
20260502070039 41 322 0.0 0.0 0.00 0.00 0.00 65 1021.1
20260502065558 40 322 0.0 0.0 0.00 0.00 0.00 65 1021.2
20260502065033 40 322 0.0 0.0 0.00 0.00 0.00 66 1021.1
20260502064536 41 322 0.0 0.0 0.00 0.00 0.00 69 1021.1
20260502064053 41 322 0.0 0.0 0.00 0.00 0.00 69 1021.2
20260502063549 41 322 0.0 0.0 0.00 0.00 0.00 68 1021.2
20260502063046 41 322 0.0 0.0 0.00 0.00 0.00 66 1021.2
20260502062607 42 322 0.0 0.0 0.00 0.00 0.00 64 1021.1
20260502062043 42 322 0.0 0.0 0.00 0.00 0.00 63 1021.2
20260502061541 42 322 0.0 0.0 0.00 0.00 0.00 62 1021.1
20260502061039 42 322 0.0 0.0 0.00 0.00 0.00 61 1021.1
20260502060607 43 322 0.0 0.0 0.00 0.00 0.00 59 1021.0
20260502060045 43 322 0.0 0.0 0.00 0.00 0.00 59 1021.0
20260502055542 43 322 0.0 0.0 0.00 0.00 0.00 60 1021.0
20260502055102 44 322 0.0 0.0 0.00 0.00 0.00 59 1021.0
20260502054540 44 322 0.0 0.0 0.00 0.00 0.00 56 1021.0
20260502054036 44 322 0.0 0.0 0.00 0.00 0.00 56 1020.9
20260502053533 44 322 0.0 0.0 0.00 0.00 0.00 55 1020.9
20260502053051 44 322 0.0 0.0 0.00 0.00 0.00 55 1020.9
20260502052608 44 322 0.0 0.0 0.00 0.00 0.00 56 1020.9
20260502052043 44 322 0.0 0.0 0.00 0.00 0.00 54 1020.8
20260502051541 44 322 0.0 0.0 0.00 0.00 0.00 55 1020.8
20260502051037 45 322 0.0 0.0 0.00 0.00 0.00 54 1020.9
20260502050604 45 322 0.0 0.0 0.00 0.00 0.00 53 1020.8
20260502050044 45 322 0.0 0.0 0.00 0.00 0.00 53 1020.8
20260502045541 45 322 0.0 1.0 0.00 0.00 0.00 53 1020.7
20260502045036 45 322 0.0 1.0 0.00 0.00 0.00 52 1020.7
20260502044533 45 322 0.0 1.0 0.00 0.00 0.00 52 1020.7
20260502044048 45 322 0.0 0.0 0.00 0.00 0.00 53 1020.7
20260502043545 45 322 0.0 0.0 0.00 0.00 0.00 53 1020.7
20260502043059 45 322 0.0 0.0 0.00 0.00 0.00 54 1020.7
20260502042606 45 322 0.0 0.0 0.00 0.00 0.00 54 1020.7
20260502042041 45 322 0.0 0.0 0.00 0.00 0.00 55 1020.7
20260502041537 45 322 0.0 0.0 0.00 0.00 0.00 54 1020.7
20260502041051 45 322 0.0 1.0 0.00 0.00 0.00 54 1020.7
20260502040558 45 322 0.0 1.0 0.00 0.00 0.00 54 1020.6
20260502040036 46 322 0.0 1.0 0.00 0.00 0.00 54 1020.6
20260502035552 46 322 0.0 0.0 0.00 0.00 0.00 53 1020.6
20260502035109 46 322 0.0 1.0 0.00 0.00 0.00 53 1020.5
20260502034625 46 322 0.0 1.0 0.00 0.00 0.00 54 1020.6
20260502034056 46 322 1.0 1.0 0.00 0.00 0.00 53 1020.6
20260502033551 46 322 1.0 1.0 0.00 0.00 0.00 53 1020.5
20260502032541 46 322 0.0 1.0 0.00 0.00 0.00 53 1020.4
20260502032038 46 322 0.0 1.0 0.00 0.00 0.00 52 1020.4
20260502031533 46 322 1.0 1.0 0.00 0.00 0.00 52 1020.4
20260502031110 46 322 1.0 2.0 0.00 0.00 0.00 51 1020.4
20260502030559 47 322 0.0 2.0 0.00 0.00 0.00 51 1020.3
20260502030037 47 322 0.0 0.0 0.00 0.00 0.00 50 1020.3
20260502025533 47 322 0.0 0.0 0.00 0.00 0.00 50 1020.2
20260502025110 47 322 0.0 0.0 0.00 0.00 0.00 50 1020.2
20260502024544 47 322 0.0 0.0 0.00 0.00 0.00 49 1020.2
20260502024042 48 322 0.0 2.0 0.00 0.00 0.00 48 1020.2
20260502023538 48 322 0.0 2.0 0.00 0.00 0.00 48 1020.0
20260502023039 48 322 0.0 2.0 0.00 0.00 0.00 48 1019.9
20260502022535 48 322 1.0 2.0 0.00 0.00 0.00 47 1019.9
20260502022112 48 322 1.0 2.0 0.00 0.00 0.00 46 1019.9
20260502021608 49 322 1.0 3.0 0.00 0.00 0.00 46 1019.8
20260502021041 49 322 1.0 2.0 0.00 0.00 0.00 46 1019.7
20260502020609 49 322 1.0 4.0 0.00 0.00 0.00 45 1019.7
20260502020047 49 322 2.0 4.0 0.00 0.00 0.00 45 1019.6
20260502015543 50 322 2.0 5.0 0.00 0.00 0.00 45 1019.5
20260502015039 50 321 2.0 5.0 0.00 0.00 0.00 45 1019.5
20260502014533 50 350 2.0 5.0 0.00 0.00 0.00 44 1019.4
20260502014049 51 318 2.0 4.0 0.00 0.00 0.00 43 1019.3
20260502013544 51 318 2.0 3.0 0.00 0.00 0.00 42 1019.3
20260502013040 51 330 2.0 5.0 0.00 0.00 0.00 42 1019.3
20260502012537 52 330 2.0 5.0 0.00 0.00 0.00 42 1019.2
20260502012031 52 356 3.0 5.0 0.00 0.00 0.00 42 1019.2
20260502011609 52 347 3.0 8.0 0.00 0.00 0.00 41 1019.1
20260502011043 53 358 3.0 9.0 0.00 0.00 0.00 39 1019.1
20260502010551 53 348 4.0 9.0 0.00 0.00 0.00 40 1019.0
20260502010048 53 335 3.0 10.0 0.00 0.00 0.00 40 1019.0
20260502005604 54 299 4.0 11.0 0.00 0.00 0.00 39 1018.9
20260502005101 54 358 3.0 8.0 0.00 0.00 0.00 38 1018.9
20260502004554 54 335 4.0 10.0 0.00 0.00 0.00 37 1018.8
20260502004050 54 328 6.0 10.0 0.00 0.00 0.00 38 1018.7
20260502003546 55 323 2.0 8.0 0.00 0.00 0.00 38 1018.7
20260502003040 55 336 3.0 8.0 0.00 0.00 0.00 37 1018.6
20260502002540 55 299 3.0 7.0 0.00 0.00 0.00 37 1018.6
20260502002036 55 329 3.0 7.0 0.00 0.00 0.00 36 1018.6
20260502001531 55 316 3.0 7.0 0.00 0.00 0.00 36 1018.6
20260502001048 55 330 5.0 13.0 0.00 0.00 0.00 37 1018.6
20260502000556 55 349 5.0 13.0 0.00 0.00 0.00 35 1018.5
20260502000033 56 354 4.0 10.0 0.00 0.00 0.00 36 1018.5
20260501235551 56 311 5.0 10.0 0.00 0.00 0.00 34 1018.5
20260501235035 56 340 6.0 9.0 0.00 0.00 0.00 34 1018.5
20260501234550 56 323 5.0 9.0 0.00 0.00 0.00 36 1018.5
20260501234044 56 343 4.0 9.0 0.00 0.00 0.00 36 1018.5
20260501233538 56 12 4.0 15.0 0.00 0.00 0.00 35 1018.5
20260501233034 57 346 7.0 15.0 0.00 0.00 0.00 34 1018.5
20260501232531 57 316 5.0 11.0 0.00 0.00 0.00 35 1018.4
20260501232046 58 309 4.0 9.0 0.00 0.00 0.00 34 1018.4
20260501231543 58 337 5.0 10.0 0.00 0.00 0.00 33 1018.3
20260501231039 58 360 5.0 10.0 0.00 0.00 0.00 33 1018.3
20260501230626 59 329 2.0 9.0 0.00 0.00 0.00 36 1018.4
20260501230106 58 332 4.0 9.0 0.00 0.00 0.00 36 1018.4
20260501225540 58 326 3.0 8.0 0.00 0.00 0.00 34 1018.3
20260501225035 58 309 3.0 11.0 0.00 0.00 0.00 36 1018.3
20260501224530 58 330 4.0 11.0 0.00 0.00 0.00 36 1018.3
20260501224110 57 323 7.0 13.0 0.00 0.00 0.00 34 1018.3
20260501223544 57 355 7.0 13.0 0.00 0.00 0.00 34 1018.3
20260501223103 57 311 8.0 13.0 0.00 0.00 0.00 34 1018.3
20260501222541 57 321 4.0 8.0 0.00 0.00 0.00 35 1018.3
20260501222038 58 10 5.0 10.0 0.00 0.00 0.00 35 1018.3
20260501221533 58 266 4.0 10.0 0.00 0.00 0.00 35 1018.2
20260501221030 58 283 6.0 10.0 0.00 0.00 0.00 36 1018.2
20260501220621 57 318 2.0 14.0 0.00 0.00 0.00 37 1018.1
20260501220037 57 25 7.0 14.0 0.00 0.00 0.00 36 1018.2
20260501215532 57 295 5.0 10.0 0.00 0.00 0.00 36 1018.2
20260501215049 57 325 6.0 10.0 0.00 0.00 0.00 34 1018.1
20260501214607 57 321 7.0 12.0 0.00 0.00 0.00 36 1018.1
20260501214042 57 313 6.0 14.0 0.00 0.00 0.00 34 1018.3
20260501213537 57 319 8.0 15.0 0.00 0.00 0.00 34 1018.3
20260501213034 57 338 7.0 13.0 0.00 0.00 0.00 35 1018.3
20260501212611 58 329 6.0 15.0 0.00 0.00 0.00 34 1018.3
20260501212046 58 321 5.0 15.0 0.00 0.00 0.00 35 1018.3
20260501211603 58 333 6.0 17.0 0.00 0.00 0.00 34 1018.4
20260501211038 59 343 6.0 10.0 0.00 0.00 0.00 35 1018.3
20260501210627 59 296 6.0 9.0 0.00 0.00 0.00 37 1018.3
20260501210043 59 313 5.0 11.0 0.00 0.00 0.00 38 1018.4
20260501205538 59 304 7.0 11.0 0.00 0.00 0.00 37 1018.5
20260501205034 59 290 5.0 9.0 0.00 0.00 0.00 39 1018.5
20260501204548 59 359 4.0 8.0 0.00 0.00 0.00 38 1018.6
20260501204105 59 324 6.0 12.0 0.00 0.00 0.00 38 1018.6
20260501203559 58 295 4.0 12.0 0.00 0.00 0.00 38 1018.6
20260501203035 58 311 4.0 14.0 0.00 0.00 0.00 40 1018.6
20260501202550 57 315 7.0 14.0 0.00 0.00 0.00 39 1018.6
20260501202044 57 337 5.0 10.0 0.00 0.00 0.00 39 1018.7
20260501201544 57 330 6.0 10.0 0.00 0.00 0.00 39 1018.8
20260501201040 59 319 5.0 10.0 0.00 0.00 0.00 39 1018.8
20260501200608 59 338 4.0 10.0 0.00 0.00 0.00 46 1018.7
20260501200046 57 357 4.0 12.0 0.00 0.00 0.00 42 1018.8
20260501195541 57 349 7.0 12.0 0.00 0.00 0.00 40 1018.8
20260501195037 57 302 4.0 10.0 0.00 0.00 0.00 42 1018.8